Location: Halle (Saale)
(51.4970°N, 11.9688°E)
Time: 00:17:07
(UTC+02:00)

ISS - Visible Passes

Search period start: 28 October 2021 00:00
Search period end: 06 November 2021 23:00
Orbit: 417 x 423 km, 51.6° (Epoch: 27 October)

Date Brightness Start Highest point End Pass type
(mag) Time Alt. Az. Time Alt. Az. Time Alt. Az.
28 Oct -2.6 05:35:41 38° SE 05:35:41 38° SE 05:38:31 10° E visible
28 Oct -3.7 07:08:40 10° W 07:12:00 90° N 07:15:23 10° E visible
29 Oct -0.6 04:50:28 14° E 04:50:28 14° E 04:51:09 10° E visible
29 Oct -3.8 06:23:27 35° WSW 06:24:44 81° SSE 06:28:07 10° E visible
30 Oct -2.9 05:38:10 50° ESE 05:38:10 50° ESE 05:40:51 10° E visible
30 Oct -3.8 07:11:09 12° W 07:14:18 86° N 07:17:42 10° E visible
31 Oct -0.6 03:52:51 15° E 03:52:51 15° E 03:53:34 10° E visible
31 Oct -3.8 05:25:50 38° W 05:27:01 85° N 05:30:24 10° E visible
01 Nov -2.9 04:40:30 51° E 04:40:30 51° E 04:43:07 10° E visible
01 Nov -3.7 06:13:29 12° W 06:16:34 76° SSW 06:19:56 10° ESE visible
02 Nov -0.6 03:55:10 15° E 03:55:10 15° E 03:55:49 10° E visible
02 Nov -3.8 05:28:08 39° W 05:29:17 87° S 05:32:40 10° E visible
03 Nov -2.9 04:42:48 49° E 04:42:48 49° E 04:45:22 10° E visible
03 Nov -3.2 06:15:46 12° W 06:18:43 47° SSW 06:21:58 10° SE visible
04 Nov -0.6 03:57:28 14° E 03:57:28 14° E 03:58:03 10° E visible
04 Nov -3.6 05:30:27 39° W 05:31:28 61° SSW 05:34:48 10° ESE visible
05 Nov -2.7 04:45:09 43° ESE 04:45:09 43° ESE 04:47:34 10° ESE visible
05 Nov -2.3 06:18:07 12° W 06:20:43 25° SSW 06:23:32 10° SSE visible
06 Nov -0.5 03:59:53 13° E 03:59:53 13° E 04:00:16 10° E visible
06 Nov -2.9 05:32:52 31° SW 05:33:31 35° SSW 05:36:37 10° SE visible
